Weather History for West Palm Beach, FL

Change the Weather History Date:

Wednesday, August 6, 2014

  Actual Average Record
Temperature  
Mean Temperature 84 °F 83 °F  
Max Temperature 91 °F 91 °F 96 °F (1942)
Min Temperature 76 °F 76 °F 68 °F (1950)
Degree Days  
Heating Degree Days 0 0  
Month to date heating degree days 0 0  
Since 1 June heating degree days 0 0  
Since 1 July heating degree days 0 0  
Cooling Degree Days 19 18  
Month to date cooling degree days 111 108  
Year to date cooling degree days 2515 2256  
Since 1 June cooling degree days 1163 1147  
Growing Degree Days 33 (Base 50)    
Moisture  
Dew Point 75 °F    
Average Humidity 77    
Maximum Humidity 94    
Minimum Humidity 59    
Precipitation  
Precipitation 0.11 in 0.23 in 1.93 in (2012)
Month to date precipitation 3.42 1.34  
Year to date precipitation 36.85 34.11  
Snow  
Snow 0.00 in - - ()
Month to date snowfall 0.0  
Since 1 June snowfall 0.0  
Since 1 July snowfall 0.0  
Snow Depth 0.00 in    
Sea Level Pressure  
Sea Level Pressure 30.03 in    
Wind  
Wind Speed 6 mph (SSW)    
Max Wind Speed 14 mph    
Max Gust Speed 19 mph    
Visibility 10 miles    
Events Rain    
T = Trace of Precipitation, MM = Missing Value Source: NWS Daily Summary

Daily Weather History Graph

Daily Weather History Graph

Search for Another Location

Airport:

Trip Planner

Search our weather history database for the weather conditions in past years. The results will help you decide how hot, cold, wet, or windy it might be!

Date:

Astronomy

Aug. 06, 2014 Rise Set
Actual Time 6:47 AM EDT 8:04 PM EDT
Civil Twilight 6:23 AM EDT 8:29 PM EDT
Nautical Twilight 5:53 AM EDT 8:58 PM EDT
Astronomical Twilight 5:23 AM EDT 9:28 PM EDT
Moon 4:15 PM EDT (8/6) 2:24 AM EDT (8/6)
Length of Visible Light 14h 06m
Length of Day
13h 16m
Waxing Gibbous, 77% of the Moon is Illuminated
Aug 6
Waxing Gibbous
Aug 10
Full
Aug 17
Last Quarter
Aug 25
New
Sep 2
First Quarter

Hourly Weather History & Observations

Time (EDT) Temp. Heat Index Dew Point Humidity Pressure Visibility Wind Dir Wind Speed Gust Speed Precip Events Conditions
12:53 AM 79.0 °F - 75.0 °F 88% 30.04 in 10.0 mi SSW 4.6 mph - N/A   Mostly Cloudy
1:53 AM 78.1 °F - 75.0 °F 90% 30.04 in 10.0 mi West 4.6 mph - N/A   Scattered Clouds
2:53 AM 78.1 °F - 75.0 °F 90% 30.02 in 10.0 mi Calm Calm - N/A   Scattered Clouds
3:53 AM 77.0 °F - 75.0 °F 94% 30.02 in 10.0 mi WNW 3.5 mph - N/A   Scattered Clouds
4:53 AM 77.0 °F - 75.0 °F 94% 30.02 in 10.0 mi West 3.5 mph - N/A   Partly Cloudy
5:53 AM 77.0 °F - 73.9 °F 90% 30.02 in 10.0 mi SW 4.6 mph - N/A   Partly Cloudy
6:53 AM 75.9 °F - 73.0 °F 91% 30.04 in 10.0 mi West 3.5 mph - N/A   Scattered Clouds
7:53 AM 79.0 °F - 73.9 °F 84% 30.06 in 10.0 mi West 4.6 mph - N/A   Scattered Clouds
8:53 AM 82.9 °F 90.8 °F 75.9 °F 79% 30.07 in 10.0 mi WNW 5.8 mph - N/A   Scattered Clouds
9:53 AM 86.0 °F 96.0 °F 75.9 °F 72% 30.06 in 10.0 mi West 5.8 mph - N/A   Scattered Clouds
10:53 AM 87.1 °F 94.5 °F 73.0 °F 63% 30.06 in 10.0 mi Variable 3.5 mph - N/A   Scattered Clouds
11:53 AM 89.1 °F 97.0 °F 73.0 °F 59% 30.06 in 10.0 mi NW 4.6 mph - N/A   Mostly Cloudy
12:53 PM 89.1 °F 97.0 °F 73.0 °F 59% 30.05 in 10.0 mi Variable 3.5 mph - N/A   Mostly Cloudy
1:53 PM 87.1 °F 97.3 °F 75.9 °F 69% 30.04 in 10.0 mi ESE 9.2 mph - N/A   Mostly Cloudy
2:53 PM 89.1 °F 101.4 °F 77.0 °F 67% 30.02 in 10.0 mi East 11.5 mph - 0.00 in   Mostly Cloudy
3:53 PM 89.1 °F 100.2 °F 75.9 °F 65% 30.00 in 10.0 mi East 13.8 mph - N/A   Mostly Cloudy
4:53 PM 84.9 °F 95.3 °F 77.0 °F 77% 30.01 in 10.0 mi ENE 6.9 mph - 0.07 in Rain Light Rain
5:53 PM 86.0 °F 96.0 °F 75.9 °F 72% 29.99 in 10.0 mi ESE 10.4 mph - 0.04 in   Mostly Cloudy
6:53 PM 84.9 °F 93.3 °F 75.0 °F 72% 30.00 in 10.0 mi SE 10.4 mph - N/A   Mostly Cloudy
7:53 PM 84.9 °F 93.3 °F 75.0 °F 72% 30.01 in 10.0 mi SSE 8.1 mph - N/A   Mostly Cloudy
8:53 PM 84.0 °F 91.9 °F 75.0 °F 74% 30.00 in 10.0 mi SSE 6.9 mph - N/A   Mostly Cloudy
9:53 PM 84.0 °F 92.6 °F 75.9 °F 76% 30.01 in 10.0 mi South 6.9 mph - N/A   Mostly Cloudy
10:53 PM 84.0 °F 92.6 °F 75.9 °F 76% 30.02 in 10.0 mi South 3.5 mph - N/A   Scattered Clouds
11:53 PM 82.9 °F 90.2 °F 75.0 °F 77% 30.03 in 10.0 mi South 3.5 mph - N/A   Mostly Cloudy